Overview Statistics Trail Chart Weather Telemetry Raw packets
 

This is the latest recevied weather packets stored in our database for station/object G4KVI. If no packets are shown the sender has not sent any weather packets the latest 10 day(s).

<< 90 91 92 93 94 95 96 >>
Time Temp. Humidity Pressure Rain* Wind** Luminosity Snow
1787928905 22.78° C 59% 1008.8 hPa 0 mm - 204 W/m² -
1787928605 22.78° C 59% 1008.7 hPa 0 mm - 362 W/m² -
1787928305 22.78° C 58% 1008.8 hPa 0 mm - 504 W/m² -
1787928005 22.78° C 59% 1008.7 hPa 0 mm - 568 W/m² -
1787927704 22.22° C 61% 1008.6 hPa 0 mm - 589 W/m² -
1787927405 22.22° C 60% 1008.8 hPa 0 mm - 530 W/m² -
1787927105 22.22° C 61% 1008.7 hPa 0 mm - 166 W/m² -
1787926815 21.67° C 64% 1009 hPa 0 mm - 386 W/m² -
1787926505 21.67° C 64% 1009.1 hPa 0 mm - 225 W/m² -
1787926205 21.67° C 63% 1009.2 hPa 0 mm - 206 W/m² -
1787925913 21.67° C 63% 1009 hPa 0 mm - 172 W/m² -
1787925605 21.67° C 63% 1008.8 hPa 0 mm - 170 W/m² -
1787925304 22.22° C 62% 1009 hPa 0 mm - 134 W/m² -
1787925005 22.22° C 61% 1008.9 hPa 0 mm - 165 W/m² -
1787924705 22.78° C 60% 1008.8 hPa 0 mm - 307 W/m² -
1787924405 22.78° C 60% 1009.2 hPa 0 mm - 740 W/m² -
1787924105 22.78° C 59% 1009 hPa 0 mm - 688 W/m² -
1787923805 22.78° C 60% 1008.9 hPa 0 mm - 679 W/m² -
1787923505 22.78° C 61% 1009 hPa 0 mm - 212 W/m² -
1787923205 21.67° C 63% 1009 hPa 0 mm - 744 W/m² -
1787922905 21.11° C 68% 1009 hPa 0 mm - 270 W/m² -
1787922604 20.56° C 71% 1009 hPa 0 mm - 800 W/m² -
1787922305 21.11° C 69% 1008.9 hPa 0 mm - 715 W/m² -
1787922005 21.67° C 68% 1008.8 hPa 0 mm - 127 W/m² -
1787921704 21.11° C 70% 1008.8 hPa 0 mm - 208 W/m² -

* Rain latest hour (hover to see other rain measurements)
** Current wind speed in m/s (hover to see current wind gust speed)